Regional Weather Roundup
Issued by NWS

Home | Current Version | Previous Version | Text Only | Print | Product List | Glossary On
Versions: 1 2 3 4 5 6 7 8 9 10 11 12 13 14 15 16 17 18 19 20 21 22 23 24 25 26 27 28 29 30 31 32 33 34 35 36 37 38 39 40 41 42 43 44 45 46 47 48 49 50
000
ASUS43 KTOP 301059
RWRKS

WEATHER ROUNDUP FOR KANSAS
NATIONAL WEATHER SERVICE GOODLAND KS
600 AM CDT SAT AUG 30 2014

NOTE:  "FAIR" INDICATES FEW OR NO CLOUDS BELOW 12,000 FEET WITH NO
SIGNIFICANT WEATHER AND/OR OBSTRUCTIONS TO VISIBILITY.

KSZ001>006-013>018-027>032-041>047-301200-
NORTHWEST KANSAS

CITY           SKY/WX    TMP DP  RH WIND       PRES   REMARKS
GOODLAND       CLEAR     56  54  93 W6        30.05S
HAYS           CLEAR     61  54  77 N6        29.99S
HILL CITY      CLEAR     61  59  93 CALM      29.99S
RUSSELL        CLEAR     62  57  83 NW7       29.97S
$$

KSZ061>065-074>080-084>089-301200-
SOUTHWEST KANSAS

CITY           SKY/WX    TMP DP  RH WIND       PRES   REMARKS
DODGE CITY     PTCLDY    63  53  70 CALM      30.01F
ELKHART          N/A     65  53  65 SW3         N/A
GARDEN CITY    PTCLDY    58  53  84 NW5       30.02S HAZE
GREAT BEND     CLEAR     61  55  82 NW3       29.98R
LIBERAL        PTCLDY    63  54  72 W5        30.06R
$$

KSZ066>073-081>083-090>101-301200-
SOUTHEAST KANSAS

CITY           SKY/WX    TMP DP  RH WIND       PRES   REMARKS
CHANUTE        CLEAR     71  69  93 SW8       29.92R
COFFEYVILLE    MOCLDY    73  71  93 S8        29.92R
HUTCHINSON     FOG       65  63  93 CALM      29.94R VSB 1/2
NEWTON         CLEAR     66  61  82 W3        29.97R
PARSONS        CLEAR     70  68  93 S3        29.93S
WICHITA INTL   CLEAR     64  62  93 S5        29.93R
WICHITA JABRA  CLEAR     65  63  93 CALM      29.93R
WICHITA MCCONL CLEAR     66  66 100 S2        29.94R
WINFIELD       CLEAR     67  66  97 CALM      29.94S
$$

KSZ007>012-019>026-033>040-048>060-102>105-301200-
NORTHEAST KANSAS

CITY           SKY/WX    TMP DP  RH WIND       PRES   REMARKS
CONCORDIA      CLEAR     63  62  97 W5        29.95R
EMPORIA        CLEAR     66  65  96 CALM      29.93R
LAWRENCE       CLEAR     66  63  90 CALM      29.90R
MANHATTAN      CLEAR     64  63  96 CALM      29.93R
OLATHE IND     CLEAR     69  66  90 SW8       29.91R
OLATHE EXE     CLEAR     68  66  93 SW5       29.90S
SALINA         CLEAR     64  61  90 CALM      29.94R
TOPEKA BILLARD CLEAR     69  67  93 CALM      29.91R
TOPEKA FORBES  CLEAR     66  64  93 W3        29.92R
$$



USA.gov is the U.S. government's official web portal to all federal, state and local government web resources and services.